Hourly Weather Julianowo

Today, 2 December, Wednesday

Time Temperature Precipitation Wind Pressure Humidity
00:00 -4°C° 0 mm 3 mps 759 mmHg 78%
01:00 -4°C° 0 mm 3 mps 759 mmHg 81%
02:00 -4°C° 0 mm 3 mps 759 mmHg 81%
03:00 -4°C° 0 mm 3 mps 759 mmHg 82%
04:00 -4°C° 0 mm 4 mps 758 mmHg 83%
05:00 -4°C° 0 mm 4 mps 759 mmHg 82%
06:00 -4°C° 0 mm 3 mps 759 mmHg 82%
07:00 -4°C° 0 mm 3 mps 759 mmHg 82%
08:00 -4°C° 0 mm 4 mps 759 mmHg 78%
09:00 -4°C° 0 mm 4 mps 758 mmHg 74%
10:00 -3°C° 0 mm 4 mps 758 mmHg 70%
11:00 -3°C° 0 mm 4 mps 758 mmHg 67%
12:00 -3°C° 0 mm 4 mps 757 mmHg 64%
13:00 -2°C° 0 mm 4 mps 757 mmHg 61%
14:00 -3°C° 0 mm 4 mps 756 mmHg 63%
15:00 -3°C° 0 mm 4 mps 756 mmHg 65%
16:00 -4°C° 0 mm 3 mps 756 mmHg 68%
17:00 -4°C° 0 mm 3 mps 755 mmHg 68%
18:00 -4°C° 0 mm 4 mps 755 mmHg 67%
19:00 -4°C° 0 mm 4 mps 755 mmHg 67%
20:00 -4°C° 0 mm 4 mps 754 mmHg 68%
21:00 -4°C° 0 mm 4 mps 754 mmHg 69%
22:00 -5°C° 0 mm 4 mps 754 mmHg 70%
23:00 -5°C° 0 mm 4 mps 753 mmHg 73%

Tomorrow, 3 December, Thursday

Time Temperature Precipitation Wind Pressure Humidity
00:00 -5°C° 0 mm 4 mps 753 mmHg 75%
01:00 -5°C° 0 mm 3 mps 753 mmHg 77%
02:00 -5°C° 0 mm 4 mps 752 mmHg 78%
03:00 -5°C° 0 mm 4 mps 751 mmHg 80%
04:00 -5°C° 0 mm 4 mps 751 mmHg 82%
05:00 -5°C° 0 mm 4 mps 750 mmHg 80%
06:00 -6°C° 0 mm 5 mps 750 mmHg 79%
07:00 -6°C° 0 mm 5 mps 750 mmHg 78%
08:00 -5°C° 0 mm 5 mps 749 mmHg 74%
09:00 -5°C° 0 mm 5 mps 749 mmHg 70%
10:00 -4°C° 0 mm 5 mps 749 mmHg 66%
11:00 -4°C° 0.2 mm 5 mps 748 mmHg 73%
12:00 -4°C° 0.2 mm 5 mps 748 mmHg 79%
13:00 -4°C° 0.2 mm 5 mps 748 mmHg 86%
14:00 -4°C° 0.5 mm 5 mps 747 mmHg 88%
15:00 -4°C° 0.5 mm 5 mps 747 mmHg 90%
16:00 -5°C° 0.5 mm 5 mps 746 mmHg 92%
17:00 -3°C° 0 mm 4 mps 746 mmHg 86%
18:00 -3°C° 0 mm 4 mps 746 mmHg 81%
19:00 -3°C° 0 mm 4 mps 746 mmHg 75%
20:00 -3°C° 0 mm 4 mps 745 mmHg 76%
21:00 -3°C° 0 mm 4 mps 745 mmHg 76%
22:00 -3°C° 0 mm 4 mps 745 mmHg 77%
23:00 -2°C° 0 mm 4 mps 744 mmHg 77%

Day after tomorrow, 4 December, Friday

Time Temperature Precipitation Wind Pressure Humidity
00:00 -2°C° 0 mm 4 mps 744 mmHg 77%
01:00 -2°C° 0 mm 4 mps 744 mmHg 77%
02:00 -2°C° 0 mm 4 mps 743 mmHg 78%
03:00 -2°C° 0 mm 5 mps 743 mmHg 79%
04:00 -1°C° 0 mm 5 mps 742 mmHg 80%
05:00 -1°C° 0.7 mm 5 mps 742 mmHg 82%
06:00 -1°C° 0.7 mm 5 mps 741 mmHg 84%
07:00 -1°C° 0.7 mm 5 mps 741 mmHg 86%
08:00 -1°C° 0.9 mm 5 mps 741 mmHg 86%
09:00 0°C° 0.9 mm 5 mps 740 mmHg 86%
10:00 0°C° 0.9 mm 5 mps 740 mmHg 85%
11:00 0°C° 0.2 mm 5 mps 740 mmHg 85%
12:00 +1°C° 0.2 mm 5 mps 740 mmHg 84%
13:00 +2°C° 0.2 mm 5 mps 740 mmHg 83%
14:00 +1°C° 0 mm 5 mps 740 mmHg 84%
15:00 +1°C° 0 mm 4 mps 739 mmHg 84%
16:00 0°C° 0 mm 4 mps 739 mmHg 84%
17:00 +1°C° 0 mm 4 mps 739 mmHg 85%
18:00 +1°C° 0 mm 4 mps 739 mmHg 85%
19:00 +1°C° 0 mm 5 mps 740 mmHg 86%
20:00 +1°C° 0 mm 5 mps 740 mmHg 86%
21:00 +1°C° 0 mm 5 mps 740 mmHg 86%
22:00 +1°C° 0 mm 5 mps 740 mmHg 86%
23:00 +1°C° 0 mm 5 mps 740 mmHg 85%

5 December, Saturday

Time Temperature Precipitation Wind Pressure Humidity
00:00 +1°C° 0 mm 6 mps 741 mmHg 84%
01:00 +1°C° 0 mm 6 mps 741 mmHg 83%
02:00 +2°C° 0 mm 6 mps 741 mmHg 83%
03:00 +2°C° 0 mm 6 mps 741 mmHg 82%
04:00 +2°C° 0 mm 6 mps 741 mmHg 82%
05:00 +2°C° 0 mm 6 mps 741 mmHg 82%
06:00 +2°C° 0 mm 6 mps 741 mmHg 83%
07:00 +2°C° 0 mm 6 mps 742 mmHg 83%
08:00 +3°C° 0 mm 6 mps 742 mmHg 82%
09:00 +3°C° 0 mm 6 mps 742 mmHg 81%
10:00 +4°C° 0 mm 6 mps 742 mmHg 80%
11:00 +4°C° 0 mm 6 mps 743 mmHg 78%
12:00 +5°C° 0 mm 6 mps 743 mmHg 76%
13:00 +6°C° 0 mm 7 mps 743 mmHg 74%
14:00 +6°C° 0 mm 7 mps 743 mmHg 75%
15:00 +5°C° 0 mm 6 mps 743 mmHg 76%
16:00 +5°C° 0 mm 6 mps 743 mmHg 78%
17:00 +5°C° 0 mm 7 mps 743 mmHg 78%
18:00 +5°C° 0 mm 7 mps 743 mmHg 79%
19:00 +5°C° 0 mm 8 mps 743 mmHg 79%
20:00 +5°C° 0 mm 8 mps 743 mmHg 79%
21:00 +5°C° 0 mm 8 mps 743 mmHg 79%
22:00 +5°C° 0 mm 8 mps 744 mmHg 79%
23:00 +5°C° 0 mm 8 mps 744 mmHg 79%

6 December, Sunday

Time Temperature Precipitation Wind Pressure Humidity
00:00 +5°C° 0 mm 8 mps 744 mmHg 79%
01:00 +5°C° 0 mm 8 mps 744 mmHg 79%
02:00 +5°C° 0 mm 8 mps 744 mmHg 79%
03:00 +5°C° 0 mm 7 mps 743 mmHg 79%
04:00 +5°C° 0 mm 7 mps 743 mmHg 79%
05:00 +5°C° 0 mm 7 mps 743 mmHg 79%
06:00 +5°C° 0 mm 7 mps 743 mmHg 80%
07:00 +5°C° 0 mm 7 mps 743 mmHg 80%
08:00 +5°C° 0 mm 7 mps 743 mmHg 78%
09:00 +6°C° 0 mm 8 mps 743 mmHg 76%
10:00 +6°C° 0 mm 8 mps 743 mmHg 74%
11:00 +7°C° 0 mm 8 mps 743 mmHg 72%
12:00 +7°C° 0 mm 8 mps 743 mmHg 70%
13:00 +8°C° 0 mm 9 mps 743 mmHg 68%
14:00 +7°C° 0 mm 9 mps 742 mmHg 71%
15:00 +7°C° 0 mm 8 mps 742 mmHg 74%
16:00 +6°C° 0 mm 8 mps 742 mmHg 77%
17:00 +6°C° 0.2 mm 8 mps 742 mmHg 79%
18:00 +6°C° 0.2 mm 8 mps 742 mmHg 81%
19:00 +6°C° 0.2 mm 8 mps 742 mmHg 83%
20:00 +6°C° 0.6 mm 8 mps 742 mmHg 83%
21:00 +6°C° 0.6 mm 8 mps 742 mmHg 83%
22:00 +6°C° 0.6 mm 8 mps 742 mmHg 83%
23:00 +6°C° 0.2 mm 8 mps 743 mmHg 83%

7 December, Monday

Time Temperature Precipitation Wind Pressure Humidity
00:00 +6°C° 0.2 mm 8 mps 743 mmHg 82%
01:00 +6°C° 0.2 mm 8 mps 743 mmHg 82%
02:00 +6°C° 0.1 mm 8 mps 743 mmHg 83%
03:00 +6°C° 0.1 mm 8 mps 743 mmHg 84%
04:00 +6°C° 0.1 mm 7 mps 743 mmHg 85%
05:00 +7°C° 0.1 mm 6 mps 744 mmHg 85%
06:00 +5°C° 0.1 mm 6 mps 744 mmHg 85%
07:00 +6°C° 0.1 mm 5 mps 745 mmHg 84%
08:00 +6°C° 0 mm 5 mps 745 mmHg 85%
09:00 +6°C° 0 mm 4 mps 746 mmHg 85%
10:00 +6°C° 0 mm 4 mps 746 mmHg 86%
11:00 +6°C° 0 mm 4 mps 746 mmHg 84%
12:00 +7°C° 0 mm 4 mps 747 mmHg 82%
13:00 +7°C° 0 mm 4 mps 747 mmHg 81%
14:00 +7°C° 0 mm 4 mps 747 mmHg 82%
15:00 +6°C° 0 mm 4 mps 747 mmHg 83%
16:00 +6°C° 0 mm 4 mps 747 mmHg 85%
17:00 +5°C° 0 mm 4 mps 748 mmHg 86%
18:00 +5°C° 0 mm 4 mps 748 mmHg 86%
19:00 +5°C° 0 mm 5 mps 748 mmHg 87%
20:00 +4°C° 0.2 mm 4 mps 748 mmHg 88%
21:00 +4°C° 0.2 mm 4 mps 748 mmHg 89%
22:00 +3°C° 0.2 mm 4 mps 748 mmHg 90%
23:00 +3°C° 0.1 mm 4 mps 748 mmHg 90%
Show more